Location: Caltech
(34.1382°N, 118.1253°W)
Time: 20:36:13
(UTC-07:00)

PANSAT - Visible Passes

Search period start: 17 October 2017 00:00
Search period end: 27 October 2017 00:00
Orbit: 477 x 483 km, 28.5° (Epoch: 17 October)

Date Brightness Start Highest point End Pass type
(mag) Time Alt. Az. Time Alt. Az. Time Alt. Az.
17 Oct 8.7 19:58:53 10° WSW 20:01:54 33° SSW 20:01:54 33° SSW visible
18 Oct 8.6 19:29:11 10° WSW 19:32:39 34° S 19:33:51 27° SE visible
19 Oct 8.7 18:59:29 10° WSW 19:02:56 34° S 19:05:48 14° ESE visible
19 Oct 10.5 20:39:14 10° WSW 20:39:56 14° WSW 20:39:56 14° WSW visible
20 Oct 9.4 20:09:32 10° WSW 20:11:55 24° SSW 20:11:55 24° SSW visible
21 Oct 9.1 19:39:49 10° WSW 19:43:01 26° SSW 19:43:56 23° SSE visible
22 Oct 9.3 19:10:07 10° WSW 19:13:18 25° SSW 19:16:00 12° SE visible
23 Oct 9.4 18:40:25 10° WSW 18:43:35 25° SSW 18:46:45 10° SE visible
24 Oct 10.4 19:52:48 10° SSW 19:53:09 10° SSW 19:53:31 10° SSW visible
